Weather History for KALB - May, 2013

Change the Weather History Date:

Friday, May 24, 2013

  Actual Average Record
Temperature  
Mean Temperature 55 °F 61 °F  
Max Temperature 66 °F 72 °F 92 °F (1964)
Min Temperature 44 °F 50 °F 29 °F (1963)
Degree Days  
Heating Degree Days 10 6  
Month to date heating degree days 145 202  
Since 1 July heating degree days 6207 6595  
Cooling Degree Days 0 1  
Month to date cooling degree days 24 13  
Year to date cooling degree days 24 17  
Moisture  
Dew Point 49 °F    
Average Humidity 87    
Maximum Humidity 93    
Minimum Humidity 80    
Precipitation  
Precipitation 1.07 in 0.13 in 1.62 in (1979)
Month to date precipitation 4.75 2.73  
Year to date precipitation 12.84 13.90  
Snow  
Snow 0.00 in 0.00 in 0.00 in ()
Month to date snowfall 0.0 0.1  
Since 1 July snowfall 51.4 59.1  
Snow Depth 0.00 in    
Sea Level Pressure  
Sea Level Pressure 29.85 in    
Wind  
Wind Speed 8 mph (NW)    
Max Wind Speed 20 mph    
Max Gust Speed 26 mph    
Visibility 6 miles    
Events Rain    
T = Trace of Precipitation, MM = Missing Value Source: NWS Daily Summary

Daily Weather History Graph

Daily Weather History Graph

Search for Another Location

Airport or City:

Trip Planner

Search our weather history database for the weather conditions in past years. The results will help you decide how hot, cold, wet, or windy it might be!

Date:

Astronomy

May. 24, 2013 Rise Set
Actual Time 5:24 AM EDT 8:20 PM EDT
Civil Twilight 4:51 AM EDT 8:53 PM EDT
Nautical Twilight 4:08 AM EDT 9:36 PM EDT
Astronomical Twilight 3:18 AM EDT 10:26 PM EDT
Moon 7:58 PM EDT (5/24) 4:55 AM EDT (5/24)
Length of Visible Light 16h 02m
Length of Day
14h 55m
Full, 100% of the Moon is Illuminated
May 24
Full
May 25
Full
May 31
Last Quarter
Jun 8
New
Jun 16
First Quarter

Hourly Weather History & Observations

Time (EDT) Temp. Windchill Dew Point Humidity Pressure Visibility Wind Dir Wind Speed Gust Speed Precip Events Conditions
12:08 AM 66.2 °F - 64.4 °F 94% 29.72 in 10.0 mi South 3.5 mph - 0.00 in Rain Light Rain
12:51 AM 66.0 °F - 64.0 °F 93% 29.71 in 10.0 mi WSW 3.5 mph - 0.01 in Rain Light Rain
1:35 AM 64.4 °F - 62.6 °F 94% 29.71 in 10.0 mi Calm Calm - 0.00 in Rain Light Rain
1:51 AM 63.0 °F - 61.0 °F 93% 29.70 in 7.0 mi Calm Calm - 0.03 in Rain Light Rain
2:51 AM 63.0 °F - 61.0 °F 93% 29.68 in 10.0 mi Calm Calm - 0.07 in Rain Light Rain
3:51 AM 62.1 °F - 61.0 °F 96% 29.66 in 9.0 mi Calm Calm - 0.05 in Rain Light Rain
4:24 AM 62.6 °F - 60.8 °F 94% 29.67 in 9.0 mi Calm Calm - 0.01 in   Overcast
4:51 AM 62.1 °F - 60.1 °F 93% 29.67 in 10.0 mi Calm Calm - 0.01 in   Overcast
5:10 AM 62.6 °F - 60.8 °F 94% 29.67 in 10.0 mi Calm Calm - N/A   Overcast
5:51 AM 60.1 °F - 57.0 °F 90% 29.70 in 10.0 mi West 12.7 mph 24.2 mph N/A   Overcast
6:03 AM 57.2 °F - 55.4 °F 94% 29.71 in 10.0 mi West 11.5 mph 20.7 mph N/A   Overcast
6:51 AM 53.1 °F - 48.9 °F 86% 29.74 in 10.0 mi West 15.0 mph 20.7 mph 0.00 in   Overcast
7:11 AM 51.8 °F - 48.2 °F 88% 29.76 in 10.0 mi West 12.7 mph 21.9 mph 0.00 in Rain Light Rain
7:51 AM 51.1 °F - 46.0 °F 83% 29.78 in 10.0 mi West 10.4 mph 18.4 mph 0.00 in Rain Light Rain
8:51 AM 50.0 °F - 45.0 °F 83% 29.82 in 10.0 mi WNW 10.4 mph - 0.00 in Rain Light Rain
9:21 AM 50.0 °F - 44.6 °F 82% 29.83 in 10.0 mi NW 6.9 mph - 0.00 in Rain Light Rain
9:51 AM 48.9 °F - 45.0 °F 86% 29.85 in 9.0 mi WNW 9.2 mph - 0.00 in   Light Drizzle
10:51 AM 50.0 °F - 45.0 °F 83% 29.88 in 10.0 mi NW 4.6 mph - 0.00 in Rain Light Rain
11:51 AM 48.9 °F - 45.0 °F 86% 29.88 in 3.0 mi WNW 8.1 mph - 0.00 in   Light Drizzle
12:03 PM 48.2 °F - 44.6 °F 87% 29.88 in 2.0 mi WNW 10.4 mph - 0.00 in   Light Drizzle
12:27 PM 48.2 °F - 46.4 °F 93% 29.89 in 2.0 mi WNW 5.8 mph - 0.00 in   Light Drizzle
12:51 PM 48.9 °F - 46.9 °F 93% 29.89 in 2.0 mi NW 9.2 mph - 0.00 in Rain Light Rain
1:51 PM 48.9 °F - 46.9 °F 93% 29.91 in 2.0 mi NNW 10.4 mph - 0.07 in Rain Light Rain
2:05 PM 48.2 °F - 46.4 °F 93% 29.90 in 2.0 mi NNW 11.5 mph - 0.01 in Rain Light Rain
2:19 PM 50.0 °F - 46.4 °F 87% 29.90 in 2.0 mi NW 9.2 mph - 0.02 in Rain Light Rain
2:44 PM 48.2 °F - 46.4 °F 93% 29.92 in 1.8 mi NNW 10.4 mph - 0.05 in Rain Light Rain
2:51 PM 48.9 °F - 46.9 °F 93% 29.93 in 1.5 mi Variable 3.5 mph - 0.08 in Rain Heavy Rain
3:51 PM 48.0 °F - 46.0 °F 93% 29.93 in 1.5 mi North 5.8 mph - 0.20 in Rain Light Rain
4:03 PM 48.2 °F - 44.6 °F 87% 29.93 in 2.5 mi NW 11.5 mph - 0.02 in Rain Light Rain
4:12 PM 48.2 °F - 46.4 °F 93% 29.93 in 1.5 mi NNW 6.9 mph - 0.03 in Rain Rain
4:51 PM 48.0 °F - 46.0 °F 93% 29.93 in 1.5 mi NW 10.4 mph - 0.13 in Rain Rain
5:51 PM 46.9 °F - 45.0 °F 93% 29.95 in 1.5 mi NNE 9.2 mph - 0.09 in Rain Light Rain
6:51 PM 46.0 °F 41.4 °F 44.1 °F 93% 29.97 in 1.5 mi North 9.2 mph - 0.05 in Rain Light Rain
7:07 PM 46.4 °F 41.5 °F 44.6 °F 93% 29.97 in 2.0 mi North 10.4 mph 18.4 mph 0.00 in Rain Light Rain
7:27 PM 46.4 °F 41.5 °F 44.6 °F 93% 29.97 in 2.5 mi North 10.4 mph 20.7 mph 0.01 in Rain Light Rain
7:35 PM 46.4 °F 40.4 °F 42.8 °F 87% 29.97 in 4.0 mi North 13.8 mph 21.9 mph 0.01 in Rain Light Rain
7:45 PM 46.4 °F 40.7 °F 42.8 °F 87% 29.97 in 5.0 mi North 12.7 mph 23.0 mph 0.01 in Rain Light Rain
7:51 PM 46.0 °F 41.0 °F 42.1 °F 86% 29.98 in 7.0 mi North 10.4 mph 20.7 mph 0.02 in Rain Light Rain
8:51 PM 46.0 °F 41.0 °F 43.0 °F 89% 30.00 in 7.0 mi NW 10.4 mph - 0.04 in Rain Light Rain
9:51 PM 45.0 °F 39.3 °F 42.1 °F 90% 30.01 in 10.0 mi NW 11.5 mph - 0.06 in Rain Light Rain
10:51 PM 44.1 °F 37.7 °F 41.0 °F 89% 30.01 in 10.0 mi NNW 12.7 mph - 0.04 in Rain Light Rain
11:51 PM 44.1 °F 37.7 °F 41.0 °F 89% 29.99 in 8.0 mi NNW 12.7 mph - 0.05 in Rain Light Rain